Wind_Speed
13 17 23 19 14 4 6 5 2 7 16 18 13 9 8 10 11 16 13 16 21 20 18 18 19 21 9 16 12 13 8 6 9 10 9 10 13 13 14 15 14 15 15 11
20 20 24 18 11 17 13 10 5 7 20 16 8 10 12 14 14 17 18 13 26 20 18 18 17 12 11 13 14 10 5 3 5 5 7 8 10 15 16 16 17 17 17 15
19 24 18 13 5 20 20 9 7 7 15 12 14 14 20 12 20 17 17 12 20 20 18 15 17 16 15 9 10 11 8 8 5 7 8 12 13 14 16 21 22 19 19 18
24 17 9 5 15 23 8 7 8 13 20 24 20 27 24 17 8 14 8 14 23 14 17 15 17 14 12 10 8 8 10 11 10 10 11 11 13 16 19 19 24 23 22 21
23 15 11 21 21 13 16 10 17 24 27 15 14 20 21 17 8 6 15 20 17 15 15 17 17 16 15 16 15 14 12 9 11 13 13 13 12 10 16 17 24 22 24 26
19 19 15 13 17 17 15 18 9 4 2 3 11 19 20 9 5 11 15 17 15 15 15 15 15 15 17 18 16 14 12 11 12 13 14 14 15 17 21 20 24 25 29 27
26 21 13 18 15 13 7 7 5 5 7 10 14 20 24 13 3 6 12 17 15 14 14 14 16 16 16 17 17 15 14 14 14 14 15 16 17 22 25 26 26 27 31 29
8 2 3 3 6 11 8 9 7 12 17 21 22 22 28 14 10 7 12 15 15 14 15 15 17 15 14 15 17 18 17 16 18 21 21 20 22 28 32 32 27 29 31 35
8 14 12 19 18 10 9 9 2 13 17 25 29 31 18 9 7 9 11 12 12 12 15 19 21 20 17 15 16 16 17 16 19 24 22 22 23 28 33 32 21 22 24 29
18 9 7 12 16 6 15 10 13 6 20 17 23 25 25 19 3 8 11 13 13 10 13 16 18 20 18 16 17 18 18 20 21 21 22 22 21 25 29 21 11 14 18 17
21 15 12 13 14 10 4 10 6 14 20 21 14 16 22 13 16 8 17 19 21 15 11 15 21 22 20 17 20 22 21 22 25 26 24 23 20 19 23 21 11 10 12 11
26 18 14 16 25 12 12 9 15 19 22 31 16 13 28 2 6 4 8 19 18 17 16 17 21 22 24 19 19 23 22 21 22 24 23 21 20 20 20 20 16 10 4 6
27 22 12 15 17 27 19 22 15 14 15 24 11 16 14 11 5 8 11 14 20 22 21 20 18 24 25 22 21 23 23 22 20 21 22 23 22 21 19 18 14 15 14 12
23 25 17 19 20 16 20 26 14 2 8 13 8 20 19 16 22 21 21 23 28 25 25 19 24 25 26 25 22 24 24 20 20 21 23 23 23 21 18 16 14 11 11 8
24 25 26 25 26 28 28 24 23 2 12 16 21 21 22 17 20 27 33 34 30 27 26 26 28 27 28 28 25 25 26 21 21 22 21 21 21 20 19 17 16 12 10 9
18 27 28 27 28 32 15 17 28 19 6 10 20 19 21 25 27 28 30 31 29 27 27 27 28 28 28 28 26 27 27 23 21 22 21 20 20 19 18 18 16 17 13 11
16 21 26 26 31 25 15 19 27 24 8 23 19 27 28 28 28 29 31 34 32 29 28 27 27 28 30 28 25 27 29 27 22 23 24 22 21 21 20 19 17 15 16 15
28 23 26 28 27 32 27 26 29 27 21 30 8 23 30 24 26 29 29 31 31 32 31 30 28 25 27 27 24 24 21 20 22 22 24 24 26 25 22 19 19 19 17 17
33 28 32 33 32 32 28 28 38 28 30 15 17 28 29 29 27 29 30 27 28 32 18 25 28 29 29 28 28 26 23 22 22 23 23 24 24 26 25 22 21 19 20 20
41 41 44 29 31 30 26 34 25 34 36 14 19 24 27 30 27 28 33 29 25 15 17 22 26 27 29 30 31 29 27 27 28 26 26 23 23 25 25 24 23 23 21 23
28 27 14 17 23 22 20 26 24 15 7 15 21 25 29 30 29 30 30 28 30 41 28 26 25 27 28 30 34 36 36 36 34 34 32 32 31 30 29 25 25 25 24 24
25 31 36 35 35 24 21 14 19 24 22 22 23 27 30 31 31 33 34 33 30 21 9 34 30 28 31 33 36 37 38 36 35 36 36 35 34 34 33 30 28 28 28 27
36 45 42 36 34 18 20 17 24 23 24 25 28 31 32 31 33 34 36 37 36 33 39 33 31 33 35 36 37 40 43 41 37 35 37 35 33 32 31 30 31 31 31 31
16 38 43 38 25 18 30 32 28 29 31 32 33 34 34 35 37 37 38 38 37 37 36 33 33 36 40 44 46 47 44 42 38 37 37 37 37 38 37 37 35 34 36 36
9 6 16 15 18 22 30 34 33 27 25 32 33 34 34 34 36 39 41 42 41 39 37 38 39 41 45 47 47 46 45 41 39 39 38 39 40 40 40 39 37 37 38 39
16 22 40 36 35 25 25 27 28 28 27 30 34 34 36 37 38 40 40 39 37 38 43 43 46 48 49 48 47 45 45 44 41 38 37 37 37 37 36 35 36 38 38 37
Wind_Direction
187 172 155 147 87 41 291 98 214 225 290 307 284 241 269 303 320 310 322 341 344 347 2 7 357 324 332 7 114 8 321 280 241 253 238 251 253 249 246 250 250 255 262 251
183 160 172 127 102 262 245 256 191 22 270 288 235 270 287 309 316 300 308 334 341 355 1 1 8 6 359 1 15 21 350 299 263 240 278 279 267 259 257 254 252 244 250 253
170 154 149 120 118 265 249 274 110 328 284 288 296 284 278 327 295 302 315 350 6 340 11 357 349 358 26 14 6 15 11 353 352 332 302 288 279 272 267 261 259 254 249 251
163 136 142 271 233 240 184 44 279 238 243 256 258 264 273 6 324 271 346 22 11 8 17 6 0 359 6 23 19 353 4 1 356 353 2 347 307 279 269 274 266 259 256 251
149 147 170 227 247 225 180 201 262 239 247 252 255 293 308 321 343 320 9 24 11 2 19 16 2 5 9 23 19 4 1 339 332 336 343 346 343 317 286 287 264 255 250 251
156 166 185 246 233 226 206 226 256 49 94 235 269 282 305 302 318 345 22 10 10 9 19 13 8 6 0 9 12 9 8 1 354 352 348 342 328 313 305 292 268 255 244 241
169 186 198 230 232 236 199 157 119 11 272 276 266 264 267 272 222 36 16 359 5 8 8 3 354 351 352 356 357 354 349 351 354 353 354 348 335 324 305 295 269 261 242 246
168 113 322 235 304 262 201 196 282 297 302 296 284 281 258 229 259 39 14 337 349 359 358 356 352 342 341 342 345 347 343 344 350 350 345 341 338 333 326 314 264 251 239 222
201 304 331 302 317 260 205 197 2 267 323 292 283 277 262 215 79 9 14 330 344 2 354 349 345 345 349 346 343 338 336 328 328 337 339 340 333 336 342 333 275 249 242 253
170 210 249 263 287 303 197 188 254 260 293 282 308 311 313 299 284 318 356 340 345 3 347 341 343 348 345 345 344 337 331 327 326 330 331 338 338 339 351 346 269 255 248 261
170 184 163 243 255 310 98 20 220 286 279 284 294 296 292 269 261 259 348 350 327 327 336 332 342 344 343 341 339 334 331 326 324 328 333 333 337 344 353 2 331 260 255 254
183 188 211 227 239 233 184 240 273 268 289 279 283 284 224 56 177 239 253 327 320 320 330 333 330 325 335 333 339 334 331 334 332 333 340 340 341 351 353 17 17 332 236 252
193 207 230 269 225 208 208 209 240 260 294 273 288 331 295 207 5 342 345 329 334 324 326 331 321 319 330 328 330 332 326 328 333 333 337 338 341 346 349 354 7 15 340 338
224 207 210 239 277 257 199 209 220 184 247 330 349 312 309 285 312 322 316 313 314 313 308 314 315 318 326 326 323 326 326 322 326 330 332 335 334 333 337 338 341 339 354 354
255 216 216 232 243 257 234 235 229 141 314 274 262 277 298 311 307 301 300 303 307 307 308 315 310 317 322 322 314 313 323 316 316 323 329 334 334 329 327 322 321 318 307 313
253 222 220 244 249 248 248 224 228 220 176 291 273 281 284 289 297 305 309 306 301 302 304 303 303 305 309 313 307 309 317 310 308 314 320 328 337 332 323 320 314 304 298 294
264 230 219 250 257 270 262 270 239 226 227 239 236 257 270 284 302 309 303 296 297 293 289 286 288 296 300 304 303 311 313 308 307 312 309 315 323 327 328 320 313 307 299 294
257 218 219 235 250 258 258 252 231 215 219 230 269 268 276 295 303 296 290 286 284 284 281 282 284 286 291 295 296 304 304 289 294 305 307 306 312 316 315 317 308 303 294 291
236 220 217 237 248 256 267 264 274 244 244 253 249 261 280 298 309 300 298 298 293 288 252 282 286 289 293 294 294 309 318 307 295 290 292 296 300 303 306 309 310 302 295 290
235 246 225 233 246 261 277 270 259 249 254 228 265 277 289 294 295 297 298 302 298 292 319 297 295 298 301 300 303 307 312 309 301 293 285 286 293 293 296 301 305 305 297 288
213 230 255 251 255 251 260 264 261 280 189 251 264 285 286 290 295 292 292 283 299 309 259 302 305 302 302 304 306 307 311 312 306 297 294 289 290 290 290 294 299 301 297 292
233 230 253 252 249 238 238 261 253 264 265 271 281 280 284 286 293 299 294 293 297 304 357 314 300 304 304 302 302 304 305 303 295 294 291 288 286 287 287 290 292 294 297 294
237 234 227 227 245 275 290 266 276 278 281 284 273 280 283 285 288 289 294 296 300 305 290 303 309 306 301 300 298 299 299 298 292 287 290 289 287 286 286 287 289 290 290 291
269 242 238 237 239 241 267 274 266 271 278 279 270 269 278 285 289 291 292 292 292 295 300 307 304 301 298 298 302 303 302 297 292 285 285 287 288 288 289 288 287 288 289 288
299 314 280 260 246 245 263 275 285 280 270 268 272 276 280 282 284 287 290 293 297 301 303 297 294 297 300 300 301 301 299 296 293 293 290 284 284 286 287 285 283 282 283 283
284 283 288 288 280 277 273 276 280 278 273 273 272 272 279 283 284 285 288 293 298 296 293 299 300 300 301 301 299 297 296 296 296 294 292 290 290 289 288 285 283 284 283 281
Height
5917 5921 5926 5927 5928 5933 5938 5939 5942 5944 5942 5942 5938 5932 5935 5934 5936 5933 5929 5926 5924 5920 5915 5913 5907 5905 5900 5904 5905 5907 5908 5907 5906 5906 5907 5908 5908 5910 5911 5912 5912 5913 5914 5915
5915 5920 5924 5924 5927 5933 5936 5938 5942 5942 5940 5941 5936 5934 5933 5934 5935 5934 5930 5924 5922 5916 5911 5909 5908 5911 5905 5904 5904 5909 5905 5905 5907 5905 5906 5906 5906 5906 5906 5907 5906 5908 5910 5912
5916 5920 5923 5926 5929 5933 5934 5937 5939 5943 5939 5938 5937 5935 5933 5936 5934 5931 5932 5928 5921 5919 5913 5911 5912 5909 5910 5914 5911 5907 5906 5904 5904 5903 5903 5902 5903 5903 5902 5901 5902 5905 5906 5908
5914 5916 5920 5928 5929 5930 5933 5935 5937 5938 5938 5937 5937 5933 5933 5936 5933 5930 5930 5927 5919 5922 5917 5913 5910 5909 5911 5910 5908 5908 5905 5903 5904 5904 5901 5901 5898 5898 5896 5897 5898 5900 5905 5906
5913 5918 5922 5926 5926 5928 5931 5932 5931 5933 5933 5933 5932 5933 5935 5933 5933 5930 5924 5919 5924 5923 5918 5915 5913 5910 5908 5907 5906 5904 5903 5905 5903 5901 5899 5899 5897 5895 5893 5894 5892 5894 5897 5898
5911 5917 5921 5922 5922 5925 5926 5927 5928 5930 5930 5932 5933 5932 5930 5930 5930 5929 5923 5923 5924 5923 5919 5918 5916 5913 5908 5907 5906 5905 5904 5903 5901 5899 5897 5895 5893 5890 5888 5887 5883 5879 5883 5887
5908 5912 5917 5919 5920 5922 5923 5926 5928 5928 5930 5930 5928 5924 5922 5926 5923 5921 5921 5922 5922 5922 5920 5919 5917 5915 5911 5908 5907 5906 5904 5902 5899 5898 5895 5892 5890 5885 5881 5877 5874 5873 5873 5877
5911 5916 5917 5918 5920 5920 5921 5925 5924 5925 5928 5924 5913 5914 5918 5917 5923 5919 5917 5923 5922 5920 5919 5919 5918 5916 5914 5911 5908 5904 5901 5899 5897 5895 5892 5890 5884 5879 5873 5866 5862 5862 5865 5870
5908 5911 5916 5917 5917 5918 5919 5921 5924 5923 5924 5919 5917 5915 5912 5912 5916 5919 5918 5921 5921 5919 5918 5918 5917 5915 5912 5910 5907 5904 5901 5898 5895 5893 5890 5887 5882 5874 5866 5858 5856 5857 5861 5863
5907 5911 5913 5915 5916 5916 5917 5919 5920 5918 5919 5911 5909 5910 5912 5914 5915 5917 5914 5915 5917 5919 5918 5917 5915 5913 5910 5907 5904 5901 5897 5894 5891 5889 5886 5883 5878 5872 5865 5857 5853 5856 5858 5862
5907 5909 5912 5915 5914 5916 5917 5918 5920 5917 5915 5915 5912 5909 5906 5906 5912 5912 5910 5910 5912 5914 5914 5912 5912 5910 5907 5904 5901 5898 5895 5891 5886 5883 5881 5878 5875 5871 5865 5858 5854 5853 5857 5857
5905 5906 5907 5911 5912 5914 5913 5917 5919 5917 5915 5908 5908 5910 5907 5910 5910 5910 5910 5912 5910 5908 5909 5910 5908 5907 5905 5901 5898 5896 5892 5889 5885 5881 5878 5875 5872 5870 5865 5861 5856 5854 5854 5853
5901 5903 5903 5902 5907 5904 5908 5911 5910 5907 5911 5906 5905 5901 5901 5903 5906 5906 5908 5909 5907 5905 5905 5908 5905 5905 5901 5898 5895 5893 5890 5886 5883 5879 5876 5873 5870 5867 5864 5862 5861 5857 5853 5853
5896 5899 5900 5901 5903 5899 5905 5908 5909 5907 5908 5902 5901 5900 5900 5903 5900 5900 5905 5906 5904 5905 5901 5905 5901 5900 5897 5894 5892 5889 5887 5884 5880 5877 5873 5871 5868 5865 5863 5861 5860 5858 5857 5856
5892 5894 5894 5895 5897 5899 5903 5906 5906 5902 5908 5906 5903 5899 5894 5894 5899 5901 5901 5901 5900 5897 5896 5895 5894 5893 5891 5889 5888 5886 5884 5881 5877 5874 5871 5868 5865 5862 5861 5859 5857 5856 5854 5853
5886 5889 5889 5890 5891 5892 5898 5899 5899 5900 5898 5904 5896 5896 5896 5897 5898 5897 5895 5892 5892 5892 5891 5891 5890 5889 5887 5886 5885 5882 5880 5876 5874 5871 5868 5866 5863 5860 5857 5856 5854 5852 5850 5849
5882 5885 5885 5883 5882 5886 5892 5891 5891 5896 5894 5896 5896 5895 5893 5894 5894 5893 5889 5887 5888 5888 5888 5888 5886 5885 5883 5883 5880 5877 5873 5870 5869 5867 5864 5862 5860 5857 5854 5851 5850 5849 5847 5845
5876 5876 5878 5880 5880 5883 5887 5888 5888 5887 5883 5886 5887 5888 5889 5892 5892 5888 5885 5883 5880 5880 5879 5879 5879 5879 5876 5876 5876 5874 5871 5868 5866 5864 5860 5858 5855 5852 5851 5849 5846 5844 5843 5842
5870 5871 5870 5873 5877 5878 5881 5884 5877 5885 5884 5884 5888 5885 5884 5884 5883 5878 5875 5877 5876 5869 5856 5871 5871 5869 5869 5867 5867 5864 5862 5862 5861 5859 5856 5853 5851 5847 5845 5842 5841 5839 5837 5836
5865 5863 5863 5871 5873 5876 5874 5871 5875 5874 5879 5884 5881 5881 5880 5880 5878 5875 5868 5870 5870 5853 5863 5865 5864 5861 5861 5858 5857 5855 5855 5853 5852 5851 5850 5847 5844 5842 5839 5836 5834 5832 5831 5829
5856 5854 5861 5867 5869 5870 5870 5864 5867 5872 5875 5876 5877 5875 5873 5873 5872 5868 5865 5865 5861 5859 5858 5862 5859 5856 5854 5851 5849 5847 5843 5842 5841 5839 5838 5837 5835 5834 5832 5830 5827 5825 5824 5822
5853 5857 5860 5862 5861 5864 5866 5865 5867 5868 5870 5872 5872 5870 5867 5863 5863 5860 5859 5858 5856 5852 5850 5856 5854 5850 5847 5843 5842 5840 5836 5835 5834 5831 5828 5827 5825 5824 5822 5820 5818 5816 5815 5814
5850 5845 5844 5852 5855 5855 5856 5863 5864 5865 5865 5865 5863 5862 5858 5857 5855 5853 5852 5851 5849 5849 5847 5846 5841 5838 5837 5836 5834 5831 5826 5824 5823 5821 5818 5816 5815 5813 5812 5810 5808 5806 5805 5804
5836 5835 5837 5849 5854 5853 5853 5855 5861 5861 5857 5856 5856 5854 5850 5847 5846 5846 5845 5845 5845 5843 5839 5836 5834 5831 5827 5825 5821 5817 5815 5812 5811 5809 5807 5805 5803 5801 5800 5798 5797 5795 5793 5791
5833 5832 5839 5848 5848 5848 5847 5848 5848 5851 5852 5847 5845 5844 5843 5842 5840 5838 5836 5834 5833 5832 5830 5827 5825 5822 5818 5814 5811 5806 5803 5801 5799 5797 5794 5792 5790 5787 5786 5784 5783 5782 5780 5778
5828 5830 5827 5831 5836 5844 5843 5840 5838 5837 5839 5837 5836 5837 5836 5835 5832 5830 5830 5829 5827 5822 5818 5816 5813 5810 5806 5803 5799 5796 5791 5789 5787 5784 5781 5779 5777 5775 5774 5772 5771 5768 5767 5766